Погода в Приаргунске

Погода в Приаргунске : погода сейчас, прогноз погоды и архив. Всё, что Вы хотите узнать о погоде в Приаргунске!

Хотите узнать прогноз погоды в Приаргунске? Тогда Вам сюда: Погода в Приаргунске

Поиск расширенной информации на нашем сайте:

Полезная информация: матрасы Поролоновые Спб

Другие новости

Новости СМИ2

Главная страница сайта

Новости сайта

02.10.2013

Напоминаем, что на нашем новом сайте вы можете получить высокодетализированные прогнозы погоды по пунктам России, СНГ и мира (включающие важные для авиации метеовеличины, такие как направление и скорость ветра, видимость, явления погоды, количество и форма облачности, нижняя и верхняя граница облачности), а также ознакомиться с разнообразными материалами по авиационной метеорологии и подборкой полезных ссылок на эту тему.

Сайт Метеоцентр.Азия посвящён разработке технологий оптимизации авиаметеорологического обслуживания, включая проектирование и перспективное создание нескольких автоматизированных авиаметеорологических систем:
- система выпуска высокодетальных прогностических карт явлений погоды для нижнего воздушного пространства по России и ближнему зарубежью;
- система верификации прогнозов TAF (выпускаемых синоптиками официальных АМСГ РФ и ближнего зарубежья) и AUTOTAF (выпускаемых сайтом Метеоцентр.Азия) - выявление ошибок, онлайн-сопоставление с фактической погодой METAR, автоматическое внесение коррективов в прогнозы при резком отклонении фактической погоды от прогноза, подсчёт оправдываемости прогнозов по элементам и в целом;
- система обработки, анализа и отображения авиаметеорологической информации для применения провайдерами метеорологической информации.

Рекомендуем: Промоутеры

Погода в Приаргунске - сегодня

Время (UTC), дата Ветер
(°,м/с) 
Видим.   Явления Облачность Т
(°С)
Тd
(°С)
f(%) Тe
(°С)
Pmin
(гПа)
dP
(гПа)
Po
(мм)
O2
(г/м3)
Тmin Tmax R s Состояние
почвы
15 20.03.17 290 (З) 20000 м    ясно 
-2.9 -10.9 54 -6  1025.8  0.1  721  294           
18 20.03.17 200 (Ю) 20000 м    ясно 
-7 -11.5 70 -7  1026.1  -0.6  720  299           
21 20.03.17 030 (СВ) 20000 м    ясно 
-7.1 -10.9 74 -10  1025.9  -0.2  720  299           
00 21.03.17 060 (СВ) 20000 м    6/6 2000 м средняя 
[Ac trans]
-3.9 -12 53 -6  1025.6  0.4  720  295  -9.7      мокрый или
старый снег
10-40% 
03 21.03.17 050 (СВ) 20000 м    8/4 2000 м средняя, верхняя 
[Ac lent|Ci fib]
-0.4 -12.8 39 -3  1024.6  -0.2  720  292           
06 21.03.17 030 (СВ) 6{10}  20000 м    3/0 верхняя 
[Ci fib]
+1.8 -14.8 28 -1  1022  -1.9  719  289           
09 21.03.17 030 (СВ) 20000 м    ясно 
+1.9 -16.3 25 1021.1  -0.8  718  289           
12 21.03.17 290 (З) 20000 м    3/3 600 м 
[Sc]
-4.9 -11.3 61 -7  1023.6  0.8  719  296    +2.4       
15 21.03.17 300 (СЗ) 20000 м    ясно 
-5.3 -12.5 57 -7  1024.3  0.6  719  297           
18 21.03.17 330 (СЗ) 20000 м    ясно 
-6.3 -12.7 60 -9  1025.3  0.7  720  298           
21 21.03.17 310 (СЗ) 20000 м    ясно 
-6.7 -13.9 57 -10  1025.8  0.3  720  299           
00 22.03.17 290 (З) 20000 м    ясно 
-3.8 -12.9 49 -7  1026.1  1.1  721  296  -7.9      мокрый или
старый снег
10-40% 
03 22.03.17 330 (СЗ) 20000 м    3/3 2000 м средняя, верхняя 
[Ac trans|Ci fib]
+1.2 -13 34 -2  1024.7  -0.3  721  290           
06 22.03.17 010 (С) 6{12}  20000 м    4/3 1000 м средняя 
[Cu med, cong|Ac trans]
+3.7 -13.9 26 +1  1023.1  -0.9  720  287           
09 22.03.17 320 (СЗ) 6{10}  20000 м    4/1 1000 м средняя, верхняя 
[Cu med, cong|Ac trans|Ci fib]
+3.8 -15.2 23 +1  1023  -0.1  720  287           
12 22.03.17 310 (СЗ) 20000 м    ясно 
-3.8 -11.8 54 -5  1026.6  1.7  721  296    +4.3       
15 22.03.17 300 (СЗ) 20000 м    ясно 
-6.7 -11.6 68 -6  1028.5  1.1  722  299           
18 22.03.17 060 (СВ) 20000 м    ясно 
-9.5 -12.9 76 -9  1029.8  0.5  722  303           
21 22.03.17 200 (Ю) 20000 м    ясно 
-11.6 -14 82 -11  1030.7  0.3  722  305           
00 23.03.17 160 (Ю) 20000 м    ясно 
-7.2 -11.6 71 -7  1030.4  0.8  723  300  -13.1        замёрзшая 
03 23.03.17 140 (ЮВ) 20000 м    ясно 
+2.7 -11.7 34 +3  1027.2  -0.7  723  289           
06 23.03.17 250 (З) 20000 м    ясно 
+5.3 -13.4 24 +4  1024.4  -2.1  721  286           
09 23.03.17 150 (ЮВ) 20000 м    ясно 
+2.6 -8.6 43 1023.9  -1  720  288           
12 23.03.17 100 (В) 20000 м    ясно 
-2.8 -7 73 -4  1026.1  0.8  721  294    +5.9       
15 23.03.17 080 (В) 20000 м    10/10 2000 м 
[Ns]
-4.6 -7.7 79 -4  1026.7  0.1  721  296           
Время (UTC), дата Ветер
(°,м/с) 
Видим.   Явления Облачность Т
(°С)
Тd
(°С)
f(%) Тe
(°С)
Pmin
(гПа)
dP
(гПа)
Po
(мм)
O2
(г/м3)
Тmin Tmax R s Состояние
почвы

Для получения пояснительной информации подведите курсор к названию столбца.

ПОГОДА в Приаргунске - архив

Всё, что Вы хотите узнать о погоде в Приаргунске - удобно и подробно!

Выберите нужную дату (начиная с 1 января 2015* года) и нажмите кнопку "Найти".
Будут отображены архивные сводки погоды по пункту Приаргунск, начиная с указанной даты.


Отображать данные в формате CSV (для использования в таблицах Excel)


Внимание! Наш архив погоды предназначен исключительно для личного некоммерческого использования в познавательных целях. Если Вам необходимы официальные справки о состоянии погоды (для производственных, юридических, коммерческих и т.п. целей), обращайтесь в органы Росгидромета.

*Примечание: данная дата относится к архиву по метеостанциям СССР (Россия, СНГ, Балтия).
Архив по метеостанциям Зарубежной Европы и Азии (кроме Китая) хранится 10 дней, по другим регионам земного шара (Китай, Африка, Америка, Австралия, Океания) - 1 день.

Приаргунск - район местоположения метеостанции


Название, широта, долгота, высота метеостанции:
Приаргунск 50.4°ш. 119.1°д. 521 м над ур. моря [Российская Федерация]

Дополнительная информация

В oтличие oт бoльшинства пoгoдных сайтoв мы публикуем пoдрoбную метеoинфoрмацию в детальнoм прoфессиoнальнoм фoрмате.

Характеристики температуры и влажнoсти вoздуха измеряются на высoте 2 м в тени вдали oт зданий и деревьев.
Скoрoсть ветра измеряется на высoте 10 м (на урoвне рoста челoвека скoрoсть ветра ниже в 1.5-2 раза). Если метеoстанция нахoдится в гoрoде или в лесу, тo скoрoсть ветра занижена на 2-4 м/с пo сравнению с oткрытым местoм. Скoрoсть ветра над акватoриями крупных рек и oзёр, а также на вершинах хoлмoв на 2-5 м/с выше, чем в oбычных услoвиях.
Атмoсфернoе давление в разных тoчках местнoсти мoжет значительнo oтличаться oт давления на метеoстанции, в зависимoсти oт услoвий рельефа (при пoдъёме на 10 м давление пoнижается примернo на 1 мм рт.ст.).